Location: LDNL
(36.4545°S, 141.6685°E)
Time: 12:07:36
(UTC+10:00)

Vanguard 3 - Pass Details

Date: 27 January 2022
Orbit: 508 x 3258 km, 33.3° (Epoch: 25 May)

Event Time Altitude Azimuth Distance (km) Brightness Sun altitude
Rises 08:20:57 0° 258° (WSW) 6,534 11.2 17.8°
Reaches altitude 10° 08:25:40 10° 267° (W) 5,796 11.0 18.7°
Maximum altitude 08:40:57 32° 320° (NW) 4,582 10.8 21.7°
Drops below altitude 10° 08:56:25 10° 15° (NNE) 5,803 11.7 24.8°
Sets 09:01:16 0° 24° (NNE) 6,533 12.0 25.8°
